Thor Agena Rocket - Orbit

View from above orbital plane
View from above orbital plane
View from above satellite
View from above satellite

Ground track
Ground track

The orbit data is extracted from the following two-line orbital elements,

1 00733U 64002A   13138.84466800  .00000243  00000-0  10812-3 0  9474
2 00733 098.9803 239.3832 0034303 191.1065 277.9849 14.31634688569019
Epoch (UTC): 18 May 2013 20:16:19
Eccentricity: 0.0034303
inclination: 98.9803°
perigee height: 761 km
apogee height: 811 km
right ascension of ascending node: 239.3832°
argument of perigee: 191.1065°
revolutions per day: 14.31634688
mean anomaly at epoch: 277.9849°
orbit number at epoch: 56901

The dashed part of the orbit path shows where the satellite is in the earth's shadow,  

Developed and maintained by Chris Peat, Heavens-Above GmbH. Please read the updated FAQ before sending e-mail. Imprint. DLR